{"data":{"norad_id":56451,"epoch":"2026-09-20T13:46:46.785504Z","epoch_age_seconds":105516,"freshness":"FRESH","line1":"1 56451U 23064D   26263.57415261  .00000123  00000+0  18078-4 0  9999","line2":"2 56451  70.0009  13.2555 0003267 268.3909  91.6876 14.98329776184438","mean_motion":14.98329776,"eccentricity":0.0003267,"inclination_deg":70.0009,"raan_deg":13.2555,"arg_perigee_deg":268.3909,"mean_anomaly_deg":91.6876,"bstar":1.8078e-5,"rev_number":18443,"period_min":96.10701349367,"perigee_km":569.78595540225,"apogee_km":574.3272118898,"semimajor_km":6950.193583646,"source":"CELESTRAK","updated_at":"2026-09-21T09:00:33.441468Z"}}